Tracking 19706 objects as of 17-Jun-2019
HD Live streaming from Space Station
objects crossing your sky now

DELTA 1 DEB

Track DELTA 1 DEB now!
10-day predictions


NORAD ID: 7146
Int'l Code: 1973-086DL
Perigee: 1,458.6 km
Apogee: 1,553.1 km
Inclination: 101.8 °
Period: 116.0 minutes
Semi major axis: 7876 km
RCS: 0.1412 m2 (medium)
Launch date: November 6, 1973
Source: United States (US)
Launch site: AIR FORCE WESTERN TEST RANGE (AFWTR)

Note: This is SATELLITE DEBRIS
aabbcc
Your satellite tracking list
Your tracking list is empty




NASA's NSSDC Master Catalog

Two Line Element Set (TLE):
1  7146U 73086DL  19167.35319803 -.00000129  00000-0 -62039-3 0  9995
2  7146 101.7954  78.3157 0059955 325.4259 143.4473 12.41859632 56638
Source of the keplerian elements: AFSPC